Weather History for KHYS - June, 2013

Change the Weather History Date:

Thursday, June 13, 2013

  Actual Average Record
Temperature  
Mean Temperature 74 °F -  
Max Temperature 91 °F 82 °F 104 °F (1998)
Min Temperature 57 °F 56 °F 53 °F (2005)
Cooling Degree Days 9    
Growing Degree Days 24 (Base 50)    
Moisture  
Dew Point 57 °F    
Average Humidity 57    
Maximum Humidity 82    
Minimum Humidity 36    
Precipitation  
Precipitation 0.00 in - - ()
Sea Level Pressure  
Sea Level Pressure 30.04 in    
Wind  
Wind Speed 12 mph (East)    
Max Wind Speed 18 mph    
Max Gust Speed 24 mph    
Visibility 10 miles    
Events      
Averages and records for this station are not official NWS values.
T = Trace of Precipitation, MM = Missing Value Source: NWS Daily Summary

Daily Weather History Graph

Daily Weather History Graph

Search for Another Location

Airport or City:

Trip Planner

Search our weather history database for the weather conditions in past years. The results will help you decide how hot, cold, wet, or windy it might be!

Date:

Astronomy

Jun. 13, 2013 Rise Set
Actual Time 6:11 AM CDT 9:03 PM CDT
Civil Twilight 5:39 AM CDT 9:35 PM CDT
Nautical Twilight 4:59 AM CDT 10:15 PM CDT
Astronomical Twilight 4:13 AM CDT 11:01 PM CDT
Moon 10:47 AM CDT (6/13) No Moon Set
Length of Visible Light 15h 55m
Length of Day
14h 51m
Waxing Crescent, 22% of the Moon is Illuminated
Jun 13
Waxing Crescent
Jun 16
First Quarter
Jun 23
Full
Jun 29
Last Quarter
Jul 8
New

Hourly Weather History & Observations

Time (CDT) Temp. Heat Index Dew Point Humidity Pressure Visibility Wind Dir Wind Speed Gust Speed Precip Events Conditions
12:15 AM 69.8 °F - 55.4 °F 60% 30.04 in 10.0 mi NE 13.8 mph - N/A   Clear
12:35 AM 69.8 °F - 55.4 °F 60% 30.05 in 10.0 mi NE 16.1 mph - N/A   Clear
12:55 AM 68.0 °F - 55.4 °F 64% 30.07 in 10.0 mi ENE 10.4 mph - N/A   Clear
1:15 AM 66.2 °F - 53.6 °F 64% 30.07 in 10.0 mi ENE 12.7 mph - N/A   Clear
1:35 AM 66.2 °F - 53.6 °F 64% 30.07 in 10.0 mi NE 12.7 mph - N/A   Clear
1:55 AM 66.2 °F - 53.6 °F 64% 30.08 in 10.0 mi ENE 13.8 mph - N/A   Clear
2:15 AM 64.4 °F - 53.6 °F 68% 30.08 in 10.0 mi ENE 10.4 mph 16.1 mph N/A   Clear
2:35 AM 64.4 °F - 51.8 °F 64% 30.08 in 10.0 mi NE 12.7 mph - N/A   Clear
2:55 AM 64.4 °F - 51.8 °F 64% 30.08 in 10.0 mi NE 12.7 mph - N/A   Clear
3:15 AM 62.6 °F - 51.8 °F 68% 30.09 in 10.0 mi ENE 10.4 mph - N/A   Clear
3:35 AM 62.6 °F - 51.8 °F 68% 30.09 in 10.0 mi ENE 10.4 mph - N/A   Clear
3:55 AM 62.6 °F - 51.8 °F 68% 30.09 in 10.0 mi ENE 10.4 mph - N/A   Clear
4:15 AM 62.6 °F - 51.8 °F 68% 30.09 in 10.0 mi ENE 10.4 mph - N/A   Clear
4:35 AM 60.8 °F - 51.8 °F 72% 30.09 in 10.0 mi ENE 11.5 mph - N/A   Clear
4:55 AM 60.8 °F - 51.8 °F 72% 30.09 in 10.0 mi ENE 8.1 mph - N/A   Clear
5:15 AM 60.8 °F - 51.8 °F 72% 30.09 in 10.0 mi ENE 10.4 mph - N/A   Clear
5:35 AM 59.0 °F - 51.8 °F 77% 30.11 in 10.0 mi ENE 8.1 mph - N/A   Clear
5:55 AM 59.0 °F - 51.8 °F 77% 30.11 in 10.0 mi East 8.1 mph - N/A   Clear
6:15 AM 57.2 °F - 51.8 °F 82% 30.11 in 10.0 mi ENE 8.1 mph - N/A   Clear
6:35 AM 57.2 °F - 51.8 °F 82% 30.11 in 10.0 mi ENE 6.9 mph - N/A   Clear
6:55 AM 57.2 °F - 51.8 °F 82% 30.11 in 10.0 mi ENE 8.1 mph - N/A   Clear
7:15 AM 59.0 °F - 51.8 °F 77% 30.11 in 10.0 mi East 8.1 mph - N/A   Clear
7:35 AM 60.8 °F - 51.8 °F 72% 30.13 in 10.0 mi East 6.9 mph - N/A   Clear
7:55 AM 60.8 °F - 51.8 °F 72% 30.12 in 10.0 mi East 9.2 mph - N/A   Clear
8:15 AM 62.6 °F - 51.8 °F 68% 30.12 in 10.0 mi East 13.8 mph - N/A   Clear
8:35 AM 64.4 °F - 53.6 °F 68% 30.12 in 10.0 mi East 11.5 mph 19.6 mph N/A   Clear
8:55 AM 66.2 °F - 53.6 °F 64% 30.12 in 10.0 mi East 13.8 mph 19.6 mph N/A   Clear
9:15 AM 66.2 °F - 53.6 °F 64% 30.12 in 10.0 mi East 13.8 mph - N/A   Clear
9:35 AM 68.0 °F - 53.6 °F 60% 30.12 in 10.0 mi ESE 15.0 mph - N/A   Clear
9:55 AM 69.8 °F - 53.6 °F 56% 30.11 in - East 12.7 mph - N/A   Clear
10:15 AM 71.6 °F - 53.6 °F 53% 30.11 in 10.0 mi East 13.8 mph - N/A   Clear
10:35 AM 71.6 °F - 53.6 °F 53% 30.10 in 10.0 mi ESE 13.8 mph 18.4 mph N/A   Clear
10:55 AM 71.6 °F - 53.6 °F 53% 30.10 in 10.0 mi East 13.8 mph 17.3 mph N/A   Clear
11:15 AM 73.4 °F - 55.4 °F 53% 30.11 in 10.0 mi SE 12.7 mph - N/A   Clear
11:35 AM 75.2 °F - 53.6 °F 47% 30.12 in 10.0 mi ESE 10.4 mph 17.3 mph N/A   Clear
11:55 AM 75.2 °F - 53.6 °F 47% 30.12 in 10.0 mi East 12.7 mph 19.6 mph N/A   Clear
12:15 PM 77.0 °F - 53.6 °F 44% 30.11 in 10.0 mi ESE 12.7 mph 19.6 mph N/A   Clear
12:35 PM 78.8 °F - 55.4 °F 44% 30.09 in 10.0 mi ESE 13.8 mph 19.6 mph N/A   Clear
12:55 PM 78.8 °F - 55.4 °F 44% 30.08 in 10.0 mi ESE 17.3 mph - N/A   Clear
1:15 PM 80.6 °F 80.5 °F 55.4 °F 42% 30.07 in 9.0 mi ESE 13.8 mph 19.6 mph N/A   Clear
1:35 PM 82.4 °F 81.7 °F 55.4 °F 39% 30.07 in 10.0 mi ESE 11.5 mph 20.7 mph N/A   Clear
1:55 PM 82.4 °F 82.0 °F 57.2 °F 42% 30.06 in 10.0 mi East 15.0 mph 19.6 mph N/A   Clear
2:15 PM 84.2 °F 83.5 °F 57.2 °F 40% 30.06 in 10.0 mi South 6.9 mph 17.3 mph N/A   Clear
2:35 PM 82.4 °F 82.0 °F 57.2 °F 42% 30.04 in 9.0 mi ESE 8.1 mph - N/A   Partly Cloudy
2:55 PM 82.4 °F 82.0 °F 57.2 °F 42% 30.02 in 9.0 mi SE 12.7 mph - N/A   Clear
3:15 PM 82.4 °F 82.0 °F 57.2 °F 42% 30.02 in 10.0 mi ESE 10.4 mph - N/A   Clear
3:35 PM 87.8 °F 87.6 °F 60.8 °F 40% 30.01 in 10.0 mi ESE 8.1 mph - N/A   Clear
3:55 PM 87.8 °F 87.6 °F 60.8 °F 40% 30.00 in 10.0 mi ESE 8.1 mph - N/A   Clear
4:15 PM 89.6 °F 89.5 °F 60.8 °F 38% 29.99 in 10.0 mi SE 12.7 mph 19.6 mph N/A   Clear
4:35 PM 89.6 °F 89.5 °F 60.8 °F 38% 29.98 in 10.0 mi SSE 11.5 mph 19.6 mph N/A   Clear
4:55 PM 91.4 °F 91.4 °F 60.8 °F 36% 29.97 in 9.0 mi SSE 11.5 mph 24.2 mph N/A   Clear
5:15 PM 91.4 °F 91.4 °F 60.8 °F 36% 29.97 in 9.0 mi ESE 16.1 mph - N/A   Clear
5:35 PM 91.4 °F 92.1 °F 62.6 °F 38% 29.96 in 10.0 mi SSE 15.0 mph 19.6 mph N/A   Clear
5:55 PM 91.4 °F 92.1 °F 62.6 °F 38% 29.95 in 10.0 mi SSE 9.2 mph 18.4 mph N/A   Clear
6:15 PM 91.4 °F 92.1 °F 62.6 °F 38% 29.95 in 10.0 mi ESE 17.3 mph 20.7 mph N/A   Clear
6:35 PM 91.4 °F 92.1 °F 62.6 °F 38% 29.94 in 9.0 mi SE 15.0 mph 18.4 mph N/A   Clear
6:55 PM 89.6 °F 90.1 °F 62.6 °F 40% 29.94 in 8.0 mi ESE 18.4 mph - N/A   Clear
7:15 PM 89.6 °F 90.1 °F 62.6 °F 40% 29.94 in 10.0 mi ESE 18.4 mph - N/A   Clear
7:35 PM 87.8 °F 88.5 °F 62.6 °F 43% 29.94 in 10.0 mi SE 17.3 mph 20.7 mph N/A   Clear
7:55 PM 86.0 °F 86.6 °F 62.6 °F 45% 29.94 in 10.0 mi SE 18.4 mph 23.0 mph N/A   Clear
8:15 PM 84.2 °F 85.0 °F 62.6 °F 48% 29.95 in 10.0 mi ESE 17.3 mph 23.0 mph N/A   Clear
8:35 PM 82.4 °F 83.4 °F 62.6 °F 51% 29.94 in 10.0 mi ESE 17.3 mph 21.9 mph N/A   Clear
8:55 PM 78.8 °F - 62.6 °F 57% 29.94 in 10.0 mi ESE 17.3 mph - N/A   Clear
9:15 PM 78.8 °F - 62.6 °F 57% 29.94 in 10.0 mi ESE 16.1 mph 21.9 mph N/A   Clear
9:35 PM 77.0 °F - 62.6 °F 61% 29.94 in 10.0 mi ESE 13.8 mph - N/A   Clear
9:55 PM 77.0 °F - 62.6 °F 61% 29.95 in 10.0 mi ESE 13.8 mph - N/A   Clear
10:15 PM 75.2 °F - 62.6 °F 65% 29.96 in 10.0 mi ESE 12.7 mph - N/A   Clear
10:35 PM 75.2 °F - 62.6 °F 65% 29.97 in 10.0 mi ESE 11.5 mph - N/A   Clear
10:55 PM 75.2 °F - 64.4 °F 69% 29.97 in 10.0 mi ESE 10.4 mph - N/A   Clear
11:15 PM 73.4 °F - 64.4 °F 73% 29.97 in 10.0 mi ESE 10.4 mph - N/A   Clear
11:35 PM 73.4 °F - 64.4 °F 73% 29.97 in 10.0 mi SE 13.8 mph 19.6 mph N/A   Clear
11:55 PM 75.2 °F - 64.4 °F 69% 29.97 in 10.0 mi SE 17.3 mph - N/A   Clear